FW6239 Weather Reports


time (UTC)temp
C
wind
direction
speed
KPH
gust
KPH
rain 1hr
cm
rain 24hr
cm
rain mn
cm
humidity
%
barometer
mb
20260505054551 18 91 6.4 17.7 0.00 0.00 0.00 79 1003.8
20260505053058 18 0 0.0 1.6 0.00 0.00 0.00 78 1004.1
20260505051604 19 360 3.2 4.8 0.00 0.00 0.00 77 1003.4
20260505050103 19 120 1.6 8.0 0.00 0.00 0.00 76 1003.1
20260505041557 21 77 1.6 17.7 0.00 0.00 0.00 71 1003.0
20260505040050 21 132 6.4 16.1 0.00 0.00 0.00 70 1002.6
20260505034542 22 202 6.4 16.1 0.00 0.00 0.00 69 1003.0
20260505033045 22 172 9.7 20.9 0.00 0.00 0.00 68 1003.3
20260505031553 22 188 9.7 20.9 0.00 0.00 0.00 67 1003.4
20260505030054 22 139 6.4 14.5 0.00 0.00 0.00 66 1003.4
20260505024544 22 171 4.8 17.7 0.00 0.00 0.00 65 1003.6
20260505023051 22 158 9.7 16.1 0.00 0.00 0.00 63 1003.6
20260505021545 22 178 8.0 16.1 0.00 0.00 0.00 62 1003.4
20260505020050 23 100 0.0 9.7 0.00 0.00 0.00 61 1003.4
20260505014549 23 154 6.4 14.5 0.00 0.00 0.00 60 1002.8
20260505013101 23 154 11.3 19.3 0.00 0.00 0.00 58 1002.2
20260505011552 23 132 8.0 17.7 0.00 0.00 0.00 56 1002.1
20260505004549 24 146 8.0 17.7 0.00 0.00 0.00 54 1002.1
20260505003047 25 144 9.7 22.5 0.00 0.00 0.00 54 1002.1
20260505001544 25 142 11.3 20.9 0.00 0.00 0.00 52 1002.4
20260505000057 25 180 9.7 20.9 0.00 0.00 0.00 52 1002.4
20260504234541 25 167 11.3 22.5 0.00 0.00 0.00 51 1002.4
20260504233055 25 192 12.9 24.1 0.00 0.00 0.00 50 1002.5
20260504231546 26 150 12.9 25.7 0.00 0.00 0.00 49 1002.5
20260504230053 26 190 11.3 24.1 0.00 0.00 0.00 48 1002.5
20260504224549 26 182 11.3 27.4 0.00 0.00 0.00 47 1002.5
20260504223058 26 184 12.9 29.0 0.00 0.00 0.00 47 1002.4
20260504221549 27 160 14.5 27.4 0.00 0.00 0.00 45 1002.3
20260504220049 27 161 14.5 27.4 0.00 0.00 0.00 45 1002.5
20260504214555 28 181 16.1 29.0 0.00 0.00 0.00 44 1002.5
20260504213044 28 161 14.5 29.0 0.00 0.00 0.00 42 1002.4
20260504211551 28 189 16.1 30.6 0.00 0.00 0.00 42 1002.6
20260504210047 28 200 6.4 20.9 0.00 0.00 0.00 45 1002.8
20260504204550 28 196 11.3 27.4 0.00 0.00 0.00 40 1002.9
20260504203048 28 178 11.3 22.5 0.00 0.00 0.00 41 1003.0
20260504201558 28 186 6.4 17.7 0.00 0.00 0.00 42 1003.3
20260504200051 28 248 6.4 14.5 0.00 0.00 0.00 43 1003.6
20260504194553 27 161 4.8 17.7 0.00 0.00 0.00 43 1003.9
20260504193055 27 221 6.4 19.3 0.00 0.00 0.00 41 1004.0
20260504191557 27 242 4.8 19.3 0.00 0.00 0.00 44 1004.3
20260504190058 27 223 8.0 17.7 0.00 0.00 0.00 43 1004.4
20260504184608 27 244 8.0 19.3 0.00 0.00 0.00 46 1004.7
20260504183050 26 198 9.7 19.3 0.00 0.00 0.00 43 1004.7
20260504181556 26 254 8.0 20.9 0.00 0.00 0.00 44 1004.9
20260504180055 26 242 9.7 17.7 0.00 0.00 0.00 44 1005.1
20260504174551 25 270 9.7 20.9 0.00 0.00 0.00 46 1005.2
20260504173051 25 223 9.7 19.3 0.00 0.00 0.00 48 1005.2
20260504171557 23 216 6.4 17.7 0.00 0.00 0.00 48 1005.2
20260504140106 19 231 9.7 30.6 0.00 0.00 0.00 56 1005.6
20260504120109 17 194 12.9 22.5 0.00 0.00 0.00 58 1005.4
20260504110104 17 181 14.5 27.4 0.00 0.00 0.00 54 1005.6
20260504081544 19 208 17.7 37.0 0.00 0.00 0.00 48 1006.8